| time (UTC) | temp C | wind direction | speed KPH | gust KPH | rain 1hr cm | rain 24hr cm | rain mn cm | humidity % | barometer mb |
| 20260506224310 | 15 | 257 | 1.6 | 6.4 | 0.00 | 0.36 | 0.30 | 94 | 1003.7 |
| 20260506223806 | 15 | 256 | 1.6 | 11.3 | 0.00 | 0.36 | 0.30 | 94 | 1003.7 |
| 20260506223300 | 15 | 222 | 3.2 | 11.3 | 0.00 | 0.36 | 0.30 | 94 | 1003.7 |
| 20260506222758 | 15 | 92 | 0.0 | 6.4 | 0.00 | 0.36 | 0.30 | 94 | 1003.7 |
| 20260506222254 | 15 | 327 | 1.6 | 6.4 | 0.00 | 0.36 | 0.30 | 94 | 1003.7 |
| 20260506221826 | 15 | 5 | 0.0 | 4.8 | 0.00 | 0.36 | 0.30 | 94 | 1003.7 |
| 20260506221256 | 15 | 360 | 1.6 | 12.9 | 0.00 | 0.36 | 0.30 | 94 | 1003.7 |
| 20260506220810 | 15 | 17 | 4.8 | 12.9 | 0.00 | 0.36 | 0.30 | 94 | 1003.7 |
| 20260506220302 | 15 | 287 | 0.0 | 4.8 | 0.00 | 0.36 | 0.30 | 94 | 1003.7 |
| 20260506215757 | 15 | 123 | 1.6 | 11.3 | 0.00 | 0.36 | 0.30 | 94 | 1003.7 |
| 20260506215312 | 15 | 49 | 3.2 | 11.3 | 0.00 | 0.36 | 0.30 | 94 | 1003.7 |
| 20260506214805 | 15 | 360 | 1.6 | 6.4 | 0.00 | 0.36 | 0.30 | 94 | 1003.7 |
| 20260506214301 | 15 | 360 | 3.2 | 8.0 | 0.00 | 0.36 | 0.30 | 94 | 1003.7 |
| 20260506213800 | 15 | 360 | 1.6 | 9.7 | 0.00 | 0.36 | 0.30 | 93 | 1003.7 |
| 20260506213311 | 15 | 360 | 4.8 | 9.7 | 0.00 | 0.36 | 0.30 | 93 | 1003.7 |
| 20260506212807 | 15 | 360 | 1.6 | 4.8 | 0.00 | 0.36 | 0.30 | 93 | 1003.7 |
| 20260506212307 | 15 | 360 | 1.6 | 9.7 | 0.00 | 0.36 | 0.30 | 93 | 1003.7 |
| 20260506211808 | 15 | 360 | 1.6 | 9.7 | 0.00 | 0.36 | 0.30 | 93 | 1003.7 |
| 20260506211303 | 15 | 360 | 1.6 | 11.3 | 0.00 | 0.36 | 0.30 | 93 | 1003.7 |
| 20260506210800 | 15 | 360 | 3.2 | 9.7 | 0.00 | 0.36 | 0.30 | 93 | 1003.7 |
| 20260506210307 | 15 | 360 | 3.2 | 9.7 | 0.00 | 0.36 | 0.30 | 93 | 1003.7 |
| 20260506205823 | 15 | 360 | 1.6 | 8.0 | 0.03 | 0.36 | 0.30 | 93 | 1003.7 |
| 20260506205257 | 15 | 360 | 1.6 | 6.4 | 0.03 | 0.36 | 0.30 | 93 | 1003.8 |
| 20260506204807 | 15 | 360 | 3.2 | 6.4 | 0.03 | 0.36 | 0.30 | 93 | 1003.8 |
| 20260506204303 | 15 | 360 | 0.0 | 6.4 | 0.03 | 0.36 | 0.30 | 93 | 1003.8 |
| 20260506203758 | 15 | 360 | 1.6 | 4.8 | 0.03 | 0.36 | 0.30 | 93 | 1004.1 |
| 20260506203257 | 15 | 360 | 0.0 | 9.7 | 0.03 | 0.36 | 0.30 | 92 | 1004.1 |
| 20260506202814 | 15 | 360 | 1.6 | 6.4 | 0.03 | 0.36 | 0.30 | 92 | 1004.1 |
| 20260506202310 | 15 | 360 | 1.6 | 6.4 | 0.03 | 0.36 | 0.30 | 92 | 1004.2 |
| 20260506201804 | 15 | 360 | 1.6 | 8.0 | 0.05 | 0.36 | 0.30 | 92 | 1004.2 |
| 20260506201300 | 15 | 360 | 1.6 | 6.4 | 0.05 | 0.36 | 0.30 | 92 | 1004.2 |
| 20260506200758 | 15 | 360 | 3.2 | 14.5 | 0.05 | 0.36 | 0.30 | 92 | 1004.5 |
| 20260506200306 | 16 | 360 | 3.2 | 14.5 | 0.03 | 0.33 | 0.28 | 92 | 1004.5 |
| 20260506195757 | 16 | 360 | 1.6 | 8.0 | 0.03 | 0.33 | 0.28 | 92 | 1004.5 |
| 20260506195310 | 16 | 360 | 1.6 | 11.3 | 0.03 | 0.33 | 0.28 | 91 | 1004.7 |
| 20260506194804 | 16 | 360 | 3.2 | 11.3 | 0.05 | 0.33 | 0.28 | 92 | 1004.7 |
| 20260506194258 | 16 | 360 | 3.2 | 6.4 | 0.05 | 0.33 | 0.28 | 92 | 1004.7 |
| 20260506193813 | 16 | 360 | 1.6 | 6.4 | 0.05 | 0.33 | 0.28 | 92 | 1004.7 |
| 20260506193300 | 16 | 360 | 1.6 | 8.0 | 0.05 | 0.33 | 0.28 | 91 | 1004.7 |
| 20260506192802 | 16 | 360 | 1.6 | 8.0 | 0.05 | 0.33 | 0.28 | 91 | 1004.7 |
| 20260506192314 | 16 | 360 | 1.6 | 8.0 | 0.05 | 0.30 | 0.25 | 91 | 1004.8 |
| 20260506191812 | 16 | 360 | 1.6 | 4.8 | 0.05 | 0.30 | 0.25 | 91 | 1004.8 |
| 20260506191301 | 16 | 360 | 1.6 | 4.8 | 0.05 | 0.30 | 0.25 | 91 | 1004.8 |
| 20260506190834 | 16 | 360 | 1.6 | 4.8 | 0.05 | 0.30 | 0.25 | 91 | 1004.7 |
| 20260506190300 | 16 | 360 | 3.2 | 4.8 | 0.08 | 0.30 | 0.25 | 90 | 1004.7 |
| 20260506185756 | 16 | 360 | 3.2 | 6.4 | 0.08 | 0.30 | 0.25 | 90 | 1004.7 |
| 20260506185312 | 16 | 360 | 0.0 | 8.0 | 0.08 | 0.30 | 0.25 | 90 | 1004.8 |
| 20260506184805 | 16 | 360 | 3.2 | 8.0 | 0.05 | 0.28 | 0.23 | 90 | 1004.8 |
| 20260506184259 | 16 | 360 | 1.6 | 6.4 | 0.08 | 0.28 | 0.23 | 90 | 1004.8 |
| 20260506183814 | 16 | 360 | 1.6 | 3.2 | 0.08 | 0.28 | 0.23 | 89 | 1005.1 |
| 20260506183307 | 17 | 360 | 1.6 | 3.2 | 0.10 | 0.28 | 0.23 | 89 | 1005.1 |
| 20260506182758 | 17 | 360 | 1.6 | 3.2 | 0.15 | 0.28 | 0.23 | 89 | 1005.1 |
| 20260506182321 | 17 | 360 | 1.6 | 4.8 | 0.15 | 0.25 | 0.20 | 89 | 1005.2 |
| 20260506181800 | 17 | 360 | 1.6 | 4.8 | 0.18 | 0.25 | 0.20 | 89 | 1005.2 |
| 20260506181313 | 17 | 360 | 1.6 | 4.8 | 0.18 | 0.25 | 0.20 | 89 | 1005.2 |
| 20260506180808 | 17 | 360 | 1.6 | 3.2 | 0.20 | 0.25 | 0.20 | 88 | 1005.2 |
| 20260506180255 | 17 | 360 | 0.0 | 3.2 | 0.18 | 0.23 | 0.18 | 88 | 1005.2 |
| 20260506175810 | 17 | 360 | 0.0 | 1.6 | 0.18 | 0.23 | 0.18 | 87 | 1005.2 |
| 20260506175306 | 17 | 360 | 0.0 | 1.6 | 0.18 | 0.23 | 0.18 | 87 | 1005.4 |
| 20260506174759 | 17 | 360 | 0.0 | 1.6 | 0.18 | 0.23 | 0.18 | 87 | 1005.4 |
| 20260506174330 | 17 | 360 | 0.0 | 1.6 | 0.15 | 0.20 | 0.15 | 86 | 1005.4 |
| 20260506173823 | 17 | 360 | 0.0 | 1.6 | 0.15 | 0.20 | 0.15 | 85 | 1005.8 |
| 20260506173259 | 17 | 360 | 0.0 | 1.6 | 0.13 | 0.18 | 0.13 | 85 | 1005.8 |
| 20260506172757 | 17 | 360 | 0.0 | 1.6 | 0.08 | 0.13 | 0.08 | 85 | 1005.8 |
| 20260506172312 | 17 | 360 | 0.0 | 3.2 | 0.05 | 0.10 | 0.05 | 85 | 1006.1 |
| 20260506171811 | 17 | 360 | 0.0 | 3.2 | 0.03 | 0.08 | 0.03 | 84 | 1006.1 |
| 20260506171305 | 17 | 360 | 0.0 | 1.6 | 0.03 | 0.08 | 0.03 | 83 | 1006.1 |
| 20260506170758 | 17 | 360 | 0.0 | 3.2 | 0.00 | 0.05 | 0.00 | 83 | 1006.2 |
| 20260506170308 | 17 | 360 | 0.0 | 4.8 | 0.00 | 0.05 | 0.00 | 82 | 1006.2 |
| 20260506165759 | 17 | 360 | 1.6 | 4.8 | 0.00 | 0.05 | 0.00 | 82 | 1006.2 |
| 20260506165256 | 17 | 360 | 0.0 | 3.2 | 0.00 | 0.05 | 0.00 | 81 | 1006.1 |
| 20260506164809 | 17 | 360 | 0.0 | 9.7 | 0.00 | 0.05 | 0.00 | 81 | 1006.1 |
| 20260506164304 | 17 | 360 | 1.6 | 9.7 | 0.00 | 0.05 | 0.00 | 81 | 1006.1 |
| 20260506163801 | 17 | 360 | 1.6 | 8.0 | 0.00 | 0.05 | 0.00 | 80 | 1006.2 |
| 20260506163259 | 17 | 360 | 1.6 | 12.9 | 0.00 | 0.05 | 0.00 | 80 | 1006.2 |
| 20260506162756 | 17 | 360 | 1.6 | 6.4 | 0.00 | 0.05 | 0.00 | 80 | 1006.2 |
| 20260506162307 | 18 | 360 | 1.6 | 6.4 | 0.00 | 0.05 | 0.00 | 80 | 1006.3 |
| 20260506161802 | 18 | 360 | 0.0 | 11.3 | 0.00 | 0.05 | 0.00 | 79 | 1006.3 |
| 20260506161300 | 18 | 360 | 3.2 | 11.3 | 0.00 | 0.05 | 0.00 | 79 | 1006.3 |
| 20260506160756 | 18 | 360 | 1.6 | 8.0 | 0.00 | 0.05 | 0.00 | 79 | 1006.3 |
| 20260506160303 | 18 | 360 | 1.6 | 6.4 | 0.00 | 0.05 | 0.00 | 79 | 1006.3 |
| 20260506155756 | 17 | 360 | 3.2 | 11.3 | 0.00 | 0.05 | 0.00 | 79 | 1006.3 |
| 20260506155307 | 17 | 360 | 3.2 | 11.3 | 0.00 | 0.05 | 0.00 | 79 | 1006.8 |
| 20260506154811 | 17 | 360 | 3.2 | 8.0 | 0.00 | 0.05 | 0.00 | 79 | 1006.8 |
| 20260506154307 | 17 | 360 | 1.6 | 8.0 | 0.00 | 0.05 | 0.00 | 79 | 1006.8 |
| 20260506153802 | 17 | 360 | 1.6 | 8.0 | 0.00 | 0.05 | 0.00 | 80 | 1006.9 |
| 20260506153301 | 17 | 360 | 3.2 | 8.0 | 0.00 | 0.05 | 0.00 | 80 | 1006.9 |
| 20260506152756 | 17 | 360 | 1.6 | 8.0 | 0.00 | 0.05 | 0.00 | 80 | 1006.9 |
| 20260506152307 | 17 | 360 | 1.6 | 6.4 | 0.00 | 0.05 | 0.00 | 80 | 1007.4 |
| 20260506151759 | 17 | 360 | 1.6 | 9.7 | 0.00 | 0.05 | 0.00 | 80 | 1007.4 |
| 20260506151312 | 17 | 360 | 4.8 | 9.7 | 0.00 | 0.05 | 0.00 | 80 | 1007.4 |
| 20260506150807 | 17 | 360 | 3.2 | 8.0 | 0.00 | 0.05 | 0.00 | 81 | 1007.2 |
| 20260506150304 | 17 | 360 | 3.2 | 8.0 | 0.00 | 0.05 | 0.00 | 81 | 1007.2 |
| 20260506145759 | 17 | 360 | 3.2 | 8.0 | 0.00 | 0.05 | 0.00 | 81 | 1007.2 |
| 20260506145313 | 17 | 360 | 1.6 | 11.3 | 0.00 | 0.05 | 0.00 | 80 | 1007.3 |
| 20260506144808 | 17 | 360 | 3.2 | 11.3 | 0.00 | 0.05 | 0.00 | 80 | 1007.3 |
| 20260506144301 | 17 | 360 | 1.6 | 4.8 | 0.00 | 0.05 | 0.00 | 80 | 1007.3 |
| 20260506143756 | 17 | 360 | 1.6 | 8.0 | 0.00 | 0.05 | 0.00 | 80 | 1007.4 |
| 20260506143256 | 17 | 360 | 3.2 | 9.7 | 0.00 | 0.05 | 0.00 | 80 | 1007.4 |
| 20260506142756 | 17 | 360 | 3.2 | 9.7 | 0.00 | 0.05 | 0.00 | 81 | 1007.4 |
| 20260506142306 | 17 | 360 | 3.2 | 9.7 | 0.00 | 0.05 | 0.00 | 81 | 1007.1 |
| 20260506141759 | 17 | 360 | 3.2 | 9.7 | 0.00 | 0.05 | 0.00 | 81 | 1007.1 |
| 20260506141259 | 17 | 360 | 3.2 | 9.7 | 0.00 | 0.05 | 0.00 | 81 | 1007.1 |
| 20260506140819 | 17 | 360 | 3.2 | 14.5 | 0.00 | 0.05 | 0.00 | 82 | 1007.3 |
| 20260506140255 | 17 | 360 | 4.8 | 14.5 | 0.00 | 0.05 | 0.00 | 82 | 1007.3 |
| 20260506135812 | 16 | 360 | 4.8 | 9.7 | 0.00 | 0.05 | 0.00 | 82 | 1007.3 |
| 20260506135306 | 16 | 360 | 3.2 | 9.7 | 0.00 | 0.05 | 0.00 | 83 | 1007.0 |
| 20260506134801 | 16 | 360 | 3.2 | 6.4 | 0.00 | 0.05 | 0.00 | 84 | 1007.0 |
| 20260506134254 | 16 | 360 | 1.6 | 9.7 | 0.00 | 0.05 | 0.00 | 84 | 1007.0 |
| 20260506133812 | 16 | 360 | 3.2 | 9.7 | 0.00 | 0.05 | 0.00 | 84 | 1006.9 |
| 20260506133304 | 16 | 360 | 1.6 | 9.7 | 0.00 | 0.05 | 0.00 | 84 | 1006.9 |
| 20260506132822 | 16 | 360 | 1.6 | 9.7 | 0.00 | 0.05 | 0.00 | 85 | 1006.9 |
| 20260506132256 | 16 | 360 | 1.6 | 4.8 | 0.00 | 0.05 | 0.00 | 85 | 1007.3 |
| 20260506131810 | 16 | 360 | 3.2 | 8.0 | 0.00 | 0.05 | 0.00 | 85 | 1007.3 |
| 20260506131302 | 15 | 360 | 3.2 | 8.0 | 0.00 | 0.05 | 0.00 | 85 | 1007.3 |
| 20260506130804 | 15 | 360 | 1.6 | 6.4 | 0.00 | 0.05 | 0.00 | 86 | 1007.5 |
| 20260506130255 | 15 | 360 | 1.6 | 6.4 | 0.00 | 0.05 | 0.00 | 86 | 1007.5 |
| 20260506125812 | 15 | 360 | 3.2 | 6.4 | 0.00 | 0.05 | 0.00 | 86 | 1007.5 |
| 20260506125309 | 15 | 360 | 1.6 | 6.4 | 0.00 | 0.05 | 0.00 | 86 | 1007.8 |
| 20260506124805 | 15 | 360 | 1.6 | 6.4 | 0.00 | 0.05 | 0.00 | 86 | 1007.8 |
| 20260506124253 | 15 | 360 | 1.6 | 3.2 | 0.00 | 0.05 | 0.00 | 86 | 1007.8 |
| 20260506123811 | 15 | 360 | 1.6 | 6.4 | 0.00 | 0.05 | 0.00 | 86 | 1007.8 |
| 20260506123309 | 15 | 360 | 1.6 | 9.7 | 0.00 | 0.05 | 0.00 | 86 | 1007.8 |
| 20260506122809 | 15 | 360 | 1.6 | 9.7 | 0.00 | 0.05 | 0.00 | 87 | 1007.8 |
| 20260506122306 | 15 | 360 | 1.6 | 8.0 | 0.00 | 0.05 | 0.00 | 87 | 1007.8 |
| 20260506121759 | 15 | 360 | 3.2 | 8.0 | 0.00 | 0.05 | 0.00 | 87 | 1007.8 |
| 20260506121255 | 15 | 360 | 1.6 | 8.0 | 0.00 | 0.05 | 0.00 | 87 | 1007.8 |
| 20260506120812 | 15 | 360 | 1.6 | 8.0 | 0.00 | 0.05 | 0.00 | 87 | 1007.8 |
| 20260506120301 | 15 | 360 | 1.6 | 9.7 | 0.00 | 0.05 | 0.00 | 88 | 1007.8 |
| 20260506115756 | 15 | 360 | 1.6 | 9.7 | 0.00 | 0.05 | 0.00 | 88 | 1007.8 |
| 20260506115306 | 14 | 360 | 1.6 | 6.4 | 0.00 | 0.05 | 0.00 | 88 | 1007.8 |
| 20260506114802 | 14 | 360 | 1.6 | 6.4 | 0.00 | 0.05 | 0.00 | 88 | 1007.8 |
| 20260506114258 | 14 | 360 | 0.0 | 4.8 | 0.00 | 0.05 | 0.00 | 88 | 1007.8 |
| 20260506113754 | 14 | 360 | 0.0 | 4.8 | 0.00 | 0.05 | 0.00 | 88 | 1007.8 |
| 20260506113306 | 14 | 360 | 1.6 | 4.8 | 0.00 | 0.05 | 0.00 | 88 | 1007.8 |
| 20260506112801 | 14 | 360 | 0.0 | 4.8 | 0.00 | 0.05 | 0.00 | 89 | 1007.8 |
| 20260506112257 | 14 | 360 | 1.6 | 6.4 | 0.00 | 0.05 | 0.00 | 89 | 1007.9 |
| 20260506111755 | 14 | 360 | 3.2 | 8.0 | 0.00 | 0.05 | 0.00 | 89 | 1007.9 |
| 20260506111300 | 13 | 360 | 3.2 | 8.0 | 0.00 | 0.05 | 0.00 | 90 | 1007.9 |
| 20260506110812 | 13 | 360 | 0.0 | 6.4 | 0.00 | 0.05 | 0.00 | 90 | 1007.9 |
| 20260506110335 | 13 | 253 | 3.2 | 6.4 | 0.00 | 0.05 | 0.00 | 90 | 1007.9 |
| 20260506105809 | 13 | 46 | 0.0 | 3.2 | 0.00 | 0.05 | 0.00 | 90 | 1007.9 |
| 20260506105310 | 13 | 360 | 0.0 | 3.2 | 0.00 | 0.05 | 0.00 | 90 | 1007.9 |
| 20260506104809 | 13 | 351 | 1.6 | 3.2 | 0.00 | 0.05 | 0.00 | 90 | 1007.9 |
| 20260506104300 | 13 | 360 | 1.6 | 3.2 | 0.00 | 0.05 | 0.00 | 90 | 1007.9 |
| 20260506103758 | 13 | 360 | 1.6 | 3.2 | 0.00 | 0.05 | 0.00 | 91 | 1007.9 |
| 20260506103258 | 13 | 317 | 0.0 | 3.2 | 0.00 | 0.05 | 0.00 | 91 | 1007.9 |
| 20260506102820 | 13 | 360 | 0.0 | 3.2 | 0.00 | 0.05 | 0.00 | 90 | 1007.9 |
| 20260506102258 | 13 | 62 | 0.0 | 3.2 | 0.00 | 0.05 | 0.00 | 90 | 1007.8 |
| 20260506101758 | 13 | 65 | 0.0 | 3.2 | 0.00 | 0.05 | 0.00 | 90 | 1007.8 |
| 20260506101256 | 13 | 63 | 0.0 | 1.6 | 0.00 | 0.05 | 0.00 | 90 | 1007.8 |
| 20260506100800 | 13 | 61 | 0.0 | 1.6 | 0.00 | 0.05 | 0.00 | 90 | 1007.8 |
| 20260506100328 | 13 | 61 | 0.0 | 0.0 | 0.00 | 0.05 | 0.00 | 90 | 1007.8 |
| 20260506095801 | 13 | 61 | 0.0 | 0.0 | 0.00 | 0.05 | 0.00 | 90 | 1007.8 |
| 20260506095258 | 12 | 61 | 0.0 | 1.6 | 0.00 | 0.05 | 0.00 | 89 | 1007.4 |
| 20260506094756 | 12 | 62 | 0.0 | 1.6 | 0.00 | 0.05 | 0.00 | 89 | 1007.4 |
| 20260506094310 | 12 | 64 | 0.0 | 1.6 | 0.00 | 0.05 | 0.00 | 89 | 1007.4 |
| 20260506093807 | 12 | 63 | 0.0 | 4.8 | 0.00 | 0.05 | 0.00 | 89 | 1007.6 |
| 20260506093302 | 12 | 65 | 0.0 | 4.8 | 0.00 | 0.05 | 0.00 | 89 | 1007.6 |
| 20260506092756 | 12 | 43 | 0.0 | 0.0 | 0.00 | 0.05 | 0.00 | 88 | 1007.6 |
| 20260506092308 | 12 | 45 | 0.0 | 0.0 | 0.00 | 0.05 | 0.00 | 88 | 1007.7 |
| 20260506091802 | 12 | 360 | 0.0 | 0.0 | 0.00 | 0.05 | 0.00 | 88 | 1007.7 |
| 20260506091334 | 12 | 360 | 0.0 | 0.0 | 0.00 | 0.05 | 0.00 | 87 | 1007.7 |
| 20260506090805 | 12 | 360 | 0.0 | 0.0 | 0.00 | 0.05 | 0.00 | 87 | 1007.8 |
| 20260506090255 | 12 | 360 | 0.0 | 0.0 | 0.00 | 0.05 | 0.00 | 87 | 1007.8 |
| 20260506085805 | 12 | 360 | 0.0 | 0.0 | 0.00 | 0.05 | 0.00 | 87 | 1007.8 |
| 20260506085300 | 12 | 45 | 0.0 | 0.0 | 0.00 | 0.05 | 0.00 | 86 | 1007.7 |
| 20260506084815 | 13 | 360 | 0.0 | 0.0 | 0.00 | 0.05 | 0.00 | 86 | 1007.7 |
| 20260506084302 | 13 | 360 | 0.0 | 0.0 | 0.00 | 0.05 | 0.00 | 85 | 1007.7 |
| 20260506083821 | 13 | 44 | 0.0 | 0.0 | 0.00 | 0.05 | 0.00 | 85 | 1007.8 |
| 20260506083311 | 13 | 44 | 0.0 | 0.0 | 0.00 | 0.05 | 0.00 | 84 | 1007.8 |
| 20260506082831 | 13 | 360 | 0.0 | 0.0 | 0.00 | 0.05 | 0.00 | 84 | 1007.8 |
| 20260506082328 | 13 | 360 | 0.0 | 0.0 | 0.00 | 0.05 | 0.00 | 83 | 1007.8 |
| 20260506081802 | 13 | 44 | 0.0 | 0.0 | 0.00 | 0.05 | 0.00 | 83 | 1007.8 |
| 20260506081259 | 13 | 360 | 0.0 | 0.0 | 0.00 | 0.05 | 0.00 | 83 | 1007.8 |
| 20260506080757 | 13 | 360 | 0.0 | 0.0 | 0.00 | 0.05 | 0.00 | 82 | 1007.8 |
| 20260506080302 | 13 | 360 | 0.0 | 0.0 | 0.00 | 0.05 | 0.00 | 82 | 1007.8 |
| 20260506073309 | 14 | 360 | 0.0 | 0.0 | 0.00 | 0.05 | 0.00 | 79 | 1007.8 |
| 20260506072820 | 14 | 360 | 0.0 | 0.0 | 0.00 | 0.05 | 0.00 | 79 | 1007.8 |
| 20260506072257 | 15 | 360 | 0.0 | 0.0 | 0.00 | 0.05 | 0.00 | 79 | 1007.9 |
| 20260506071752 | 15 | 360 | 0.0 | 0.0 | 0.00 | 0.05 | 0.00 | 78 | 1007.9 |
| 20260506071253 | 15 | 360 | 0.0 | 0.0 | 0.00 | 0.05 | 0.00 | 78 | 1007.9 |
| 20260506070813 | 15 | 360 | 0.0 | 0.0 | 0.00 | 0.05 | 0.00 | 78 | 1007.9 |
| 20260506070255 | 15 | 360 | 0.0 | 0.0 | 0.00 | 0.05 | 0.00 | 77 | 1007.9 |
| 20260506062315 | 16 | 360 | 0.0 | 1.6 | 0.00 | 0.05 | 0.00 | 75 | 1007.5 |
| 20260506061806 | 16 | 360 | 0.0 | 0.0 | 0.00 | 0.05 | 0.00 | 75 | 1007.5 |
| 20260506061305 | 16 | 360 | 0.0 | 1.6 | 0.00 | 0.05 | 0.00 | 74 | 1007.5 |
| 20260506060758 | 16 | 360 | 0.0 | 1.6 | 0.00 | 0.05 | 0.00 | 74 | 1007.7 |
| 20260506060321 | 16 | 360 | 0.0 | 1.6 | 0.00 | 0.05 | 0.00 | 73 | 1007.7 |
| 20260506051256 | 16 | 360 | 0.0 | 3.2 | 0.00 | 0.05 | 0.00 | 72 | 1007.9 |
| 20260506050809 | 16 | 360 | 0.0 | 3.2 | 0.00 | 0.05 | 0.00 | 71 | 1007.9 |
| 20260506050259 | 16 | 360 | 0.0 | 6.4 | 0.00 | 0.05 | 0.00 | 71 | 1007.9 |
| 20260506044809 | 17 | 360 | 0.0 | 6.4 | 0.00 | 0.05 | 0.00 | 70 | 1007.8 |
| 20260506044305 | 17 | 360 | 1.6 | 6.4 | 0.00 | 0.05 | 0.00 | 70 | 1007.8 |
| 20260506043801 | 17 | 360 | 3.2 | 4.8 | 0.00 | 0.05 | 0.00 | 70 | 1007.8 |
| 20260506043301 | 17 | 360 | 0.0 | 4.8 | 0.00 | 0.05 | 0.00 | 70 | 1007.8 |
| 20260506042756 | 17 | 360 | 1.6 | 3.2 | 0.00 | 0.05 | 0.00 | 69 | 1007.8 |
| 20260506042307 | 17 | 360 | 0.0 | 3.2 | 0.00 | 0.05 | 0.00 | 69 | 1007.8 |
| 20260506041800 | 17 | 360 | 0.0 | 4.8 | 0.00 | 0.05 | 0.00 | 69 | 1007.8 |
| 20260506041314 | 17 | 360 | 1.6 | 4.8 | 0.00 | 0.05 | 0.00 | 68 | 1007.8 |
| 20260506040811 | 17 | 360 | 0.0 | 3.2 | 0.00 | 0.05 | 0.00 | 68 | 1007.9 |
| 20260506040300 | 17 | 360 | 0.0 | 4.8 | 0.00 | 0.05 | 0.00 | 67 | 1007.9 |
| 20260506035800 | 17 | 360 | 1.6 | 4.8 | 0.00 | 0.05 | 0.05 | 67 | 1007.9 |
| 20260506035258 | 17 | 360 | 0.0 | 8.0 | 0.00 | 0.05 | 0.05 | 67 | 1007.8 |
| 20260506034813 | 17 | 360 | 3.2 | 8.0 | 0.00 | 0.05 | 0.05 | 67 | 1007.8 |
| 20260506034310 | 17 | 360 | 1.6 | 4.8 | 0.00 | 0.05 | 0.05 | 67 | 1007.8 |
| 20260506033801 | 17 | 360 | 0.0 | 6.4 | 0.00 | 0.05 | 0.05 | 67 | 1007.8 |
| 20260506033313 | 17 | 360 | 0.0 | 9.7 | 0.00 | 0.05 | 0.05 | 66 | 1007.8 |
| 20260506032831 | 18 | 360 | 1.6 | 9.7 | 0.00 | 0.05 | 0.05 | 66 | 1007.8 |
| 20260506032306 | 18 | 360 | 1.6 | 6.4 | 0.00 | 0.05 | 0.05 | 66 | 1007.8 |
| 20260506031806 | 18 | 360 | 0.0 | 8.0 | 0.00 | 0.05 | 0.05 | 66 | 1007.8 |
| 20260506031324 | 18 | 360 | 1.6 | 8.0 | 0.00 | 0.05 | 0.05 | 66 | 1007.8 |
| 20260506030755 | 18 | 360 | 0.0 | 6.4 | 0.00 | 0.05 | 0.05 | 67 | 1007.8 |
| 20260506030304 | 18 | 360 | 1.6 | 6.4 | 0.00 | 0.05 | 0.05 | 66 | 1007.8 |
| 20260506025820 | 18 | 360 | 1.6 | 4.8 | 0.00 | 0.05 | 0.05 | 66 | 1007.8 |
| 20260506025315 | 18 | 360 | 0.0 | 6.4 | 0.00 | 0.05 | 0.05 | 67 | 1007.7 |
| 20260506024807 | 18 | 360 | 1.6 | 6.4 | 0.00 | 0.05 | 0.05 | 67 | 1007.7 |
| 20260506024304 | 18 | 360 | 0.0 | 4.8 | 0.00 | 0.05 | 0.05 | 67 | 1007.7 |
| 20260506023803 | 18 | 360 | 1.6 | 4.8 | 0.00 | 0.05 | 0.05 | 67 | 1007.6 |
| 20260506023255 | 18 | 360 | 0.0 | 4.8 | 0.00 | 0.05 | 0.05 | 67 | 1007.6 |
| 20260506022809 | 18 | 360 | 0.0 | 3.2 | 0.00 | 0.05 | 0.05 | 68 | 1007.6 |
| 20260506022306 | 18 | 360 | 0.0 | 4.8 | 0.00 | 0.05 | 0.05 | 68 | 1007.7 |
| 20260506021805 | 18 | 360 | 0.0 | 4.8 | 0.00 | 0.05 | 0.05 | 68 | 1007.7 |
| 20260506021305 | 18 | 360 | 0.0 | 1.6 | 0.00 | 0.05 | 0.05 | 68 | 1007.7 |
| 20260506020803 | 18 | 360 | 0.0 | 3.2 | 0.00 | 0.05 | 0.05 | 69 | 1007.5 |
| 20260506020304 | 18 | 360 | 0.0 | 3.2 | 0.00 | 0.05 | 0.05 | 69 | 1007.5 |
| 20260506015801 | 18 | 360 | 1.6 | 6.4 | 0.00 | 0.05 | 0.05 | 69 | 1007.5 |
| 20260506015255 | 18 | 360 | 1.6 | 4.8 | 0.00 | 0.05 | 0.05 | 70 | 1007.4 |
| 20260506014805 | 18 | 360 | 0.0 | 3.2 | 0.00 | 0.05 | 0.05 | 71 | 1007.4 |
| 20260506014258 | 18 | 360 | 0.0 | 3.2 | 0.00 | 0.05 | 0.05 | 71 | 1007.4 |
| 20260506013758 | 18 | 360 | 0.0 | 4.8 | 0.00 | 0.05 | 0.05 | 71 | 1007.4 |
| 20260506013255 | 18 | 360 | 0.0 | 4.8 | 0.00 | 0.05 | 0.05 | 71 | 1007.4 |
| 20260506012756 | 18 | 360 | 0.0 | 6.4 | 0.00 | 0.05 | 0.05 | 71 | 1007.4 |
| 20260506012301 | 18 | 360 | 0.0 | 6.4 | 0.00 | 0.05 | 0.05 | 72 | 1007.2 |
| 20260506011755 | 18 | 360 | 1.6 | 6.4 | 0.00 | 0.05 | 0.05 | 73 | 1007.2 |
| 20260506011334 | 18 | 360 | 1.6 | 4.8 | 0.00 | 0.05 | 0.05 | 74 | 1007.2 |
| 20260506010801 | 18 | 360 | 0.0 | 3.2 | 0.00 | 0.05 | 0.05 | 75 | 1007.1 |
| 20260506010310 | 18 | 360 | 0.0 | 3.2 | 0.00 | 0.05 | 0.05 | 76 | 1007.1 |
| 20260506005822 | 18 | 360 | 0.0 | 1.6 | 0.00 | 0.05 | 0.05 | 77 | 1007.1 |
| 20260506005317 | 19 | 360 | 0.0 | 1.6 | 0.00 | 0.05 | 0.05 | 76 | 1007.0 |
| 20260506004828 | 19 | 360 | 0.0 | 1.6 | 0.00 | 0.05 | 0.05 | 75 | 1007.0 |
| 20260506004257 | 19 | 360 | 0.0 | 1.6 | 0.05 | 0.05 | 0.05 | 75 | 1007.0 |
| 20260506003752 | 20 | 360 | 0.0 | 0.0 | 0.05 | 0.05 | 0.05 | 74 | 1006.9 |
| 20260506003312 | 20 | 360 | 0.0 | 1.6 | 0.05 | 0.05 | 0.05 | 74 | 1006.9 |
| 20260506002830 | 20 | 360 | 0.0 | 1.6 | 0.05 | 0.05 | 0.05 | 71 | 1006.9 |
| 20260506002301 | 21 | 360 | 0.0 | 1.6 | 0.05 | 0.05 | 0.05 | 70 | 1006.9 |
| 20260506001758 | 21 | 360 | 0.0 | 0.0 | 0.05 | 0.05 | 0.05 | 69 | 1006.9 |
| 20260506001251 | 21 | 360 | 0.0 | 0.0 | 0.05 | 0.05 | 0.05 | 69 | 1006.7 |
| 20260506000806 | 22 | 360 | 0.0 | 1.6 | 0.05 | 0.05 | 0.05 | 67 | 1006.7 |
| 20260506000319 | 22 | 360 | 0.0 | 1.6 | 0.05 | 0.05 | 0.05 | 65 | 1006.7 |
| 20260505235809 | 22 | 360 | 0.0 | 6.4 | 0.05 | 0.05 | 0.05 | 64 | 1006.7 |
| 20260505235307 | 22 | 360 | 1.6 | 6.4 | 0.05 | 0.05 | 0.05 | 62 | 1006.7 |
| 20260505234802 | 23 | 360 | 1.6 | 6.4 | 0.03 | 0.03 | 0.03 | 60 | 1006.7 |
| 20260505234318 | 23 | 360 | 1.6 | 6.4 | 0.00 | 0.00 | 0.00 | 53 | 1006.7 |
| 20260505233759 | 23 | 360 | 0.0 | 9.7 | 0.00 | 0.00 | 0.00 | 51 | 1005.2 |
| 20260505233254 | 23 | 360 | 4.8 | 12.9 | 0.00 | 0.00 | 0.00 | 50 | 1005.2 |
| 20260505232809 | 23 | 360 | 3.2 | 12.9 | 0.00 | 0.00 | 0.00 | 49 | 1005.2 |
| 20260505232305 | 23 | 360 | 3.2 | 9.7 | 0.00 | 0.00 | 0.00 | 49 | 1004.5 |
| 20260505231820 | 23 | 360 | 3.2 | 11.3 | 0.00 | 0.00 | 0.00 | 48 | 1004.5 |
| 20260505231309 | 23 | 360 | 3.2 | 16.1 | 0.00 | 0.00 | 0.00 | 48 | 1004.5 |
| 20260505230824 | 23 | 360 | 6.4 | 16.1 | 0.00 | 0.00 | 0.00 | 47 | 1004.2 |
| 20260505230257 | 23 | 360 | 4.8 | 12.9 | 0.00 | 0.00 | 0.00 | 47 | 1004.2 |
| 20260505225810 | 23 | 360 | 6.4 | 12.9 | 0.00 | 0.00 | 0.00 | 47 | 1004.2 |
| 20260505225301 | 24 | 360 | 4.8 | 14.5 | 0.00 | 0.00 | 0.00 | 47 | 1004.2 |
| 20260505224759 | 24 | 360 | 3.2 | 16.1 | 0.00 | 0.00 | 0.00 | 47 | 1004.2 |